Theta_e
299 299 299 299 299 299 299 299 299 300 300 301 301 301 301 301 301 302 302 303 303 303 304 306 306 306 307 308 309 311 312 311 312 312 313 312 313 310 309 309 308 308 308
299 299 299 299 299 298 298 298 298 298 299 299 300 300 301 301 301 301 302 302 302 302 303 305 305 305 306 307 307 309 311 311 311 311 312 312 312 312 309 308 307 308 308
299 299 299 298 298 298 298 298 297 297 297 298 298 298 299 300 300 300 301 302 302 302 302 303 304 304 305 307 306 307 309 310 310 310 310 311 311 310 309 309 307 307 307
298 298 298 298 298 298 298 298 298 297 296 296 297 297 298 299 299 300 301 301 302 302 302 302 302 303 304 305 305 306 306 308 309 309 309 310 310 310 308 308 307 307 307
298 298 298 298 297 297 296 296 297 297 297 296 296 296 297 297 298 299 300 301 301 302 302 303 303 303 304 304 305 305 306 307 308 309 308 308 309 309 309 307 308 308 308
297 297 297 296 296 296 296 297 296 296 297 297 296 296 297 296 296 298 299 300 300 301 302 302 303 303 303 303 304 304 305 306 308 308 308 307 308 308 308 306 306 307 308
296 296 295 295 295 296 295 296 296 296 297 297 297 297 297 297 297 298 299 300 301 301 300 299 303 302 302 302 302 303 304 305 306 307 307 306 307 309 308 306 306 306 307
295 295 295 295 295 296 296 296 296 296 296 297 295 296 296 296 297 298 299 300 300 300 300 302 302 302 302 302 302 302 303 304 305 306 307 307 307 308 309 307 306 306 306
295 295 295 295 296 296 295 296 296 296 296 296 296 295 296 296 297 298 298 299 299 299 300 301 301 301 302 302 302 302 302 302 302 305 306 307 308 308 307 306 306 306 307
295 295 295 295 295 295 295 296 296 296 296 296 295 295 295 296 297 297 298 299 299 299 300 300 301 301 301 301 301 302 302 302 303 303 305 307 308 307 307 305 305 306 306
295 295 294 294 295 295 296 296 296 296 295 296 296 296 295 296 296 297 298 298 299 299 299 300 300 300 300 300 301 301 301 301 303 303 306 308 308 307 306 306 305 305 305
294 294 294 294 294 295 295 296 296 296 296 296 296 296 296 296 296 296 297 298 298 299 299 299 299 299 300 301 301 301 302 304 304 305 306 307 307 306 305 304 304 304 305
294 294 294 294 294 295 296 296 296 296 296 296 296 297 297 295 295 295 296 297 298 298 298 298 298 299 300 301 302 303 304 304 305 305 306 305 304 304 304 304 304 304 306
294 294 294 294 295 296 295 295 296 296 296 297 297 297 297 297 296 295 295 296 297 298 298 299 300 300 301 302 303 304 305 305 305 305 306 305 304 304 305 305 305 305 303
294 294 294 295 295 295 295 295 296 297 297 297 297 298 298 298 297 297 297 298 298 299 299 300 301 301 301 302 303 304 305 305 305 305 305 305 305 305 305 304 303 303 303
294 294 294 295 295 295 295 295 296 299 299 299 299 299 298 299 299 299 299 300 300 300 300 300 301 299 301 301 303 303 304 304 305 304 304 304 304 303 302 303 304 304 304
294 294 294 294 294 294 294 295 299 299 301 303 301 300 302 301 301 302 303 303 302 301 301 301 300 300 300 300 301 301 300 301 302 302 302 302 302 301 303 304 303 304 305
294 294 293 294 294 293 294 296 300 300 300 300 301 301 301 301 300 299 298 297 297 298 298 298 298 299 299 299 299 299 299 300 300 300 301 302 302 303 303 304 304 306 309
294 293 293 294 293 293 296 300 300 300 300 300 299 299 300 300 300 300 299 298 298 298 298 298 298 298 298 298 298 298 298 299 300 300 300 300 301 302 302 304 307 309 309
293 293 293 293 293 294 297 299 299 299 299 299 299 299 298 298 298 298 298 297 297 297 297 296 296 296 296 296 296 297 298 296 296 297 297 298 299 301 303 308 309 309 308
292 292 292 293 293 294 297 298 298 298 298 298 297 297 297 297 297 297 297 297 296 296 295 295 295 295 295 295 296 296 295 295 296 296 297 298 300 301 307 309 309 308 308
292 292 292 293 293 294 296 296 296 296 296 296 295 295 294 295 296 296 296 296 295 295 295 295 295 295 295 295 295 295 295 295 295 297 298 300 301 305 309 309 309 308 308
292 292 292 292 293 293 294 295 295 295 294 294 294 293 294 294 295 296 295 295 295 295 295 294 294 293 293 294 294 294 294 294 295 296 298 301 305 309 309 309 309 308 307
291 291 292 292 292 292 292 293 293 293 293 293 292 292 293 294 295 295 294 295 295 294 294 293 292 292 292 293 293 293 294 295 296 297 299 302 307 308 309 309 309 308 308
291 291 291 292 291 291 292 292 292 292 293 293 293 293 294 294 294 294 294 294 294 294 293 292 291 291 291 292 293 293 295 296 296 297 299 303 306 307 308 308 308 308 309
290 291 291 291 291 291 291 292 292 292 292 293 293 293 294 294 293 293 294 294 294 293 292 291 290 290 290 291 292 292 294 295 295 296 299 302 304 306 307 307 308 308 309
Wind_Speed
28 28 29 31 32 32 33 33 34 35 34 35 34 35 35 34 31 34 36 31 30 29 29 28 26 23 21 20 19 19 21 17 12 17 20 30 12 22 19 23 22 23 26
28 29 30 30 31 31 32 33 33 35 36 36 35 34 34 32 31 33 34 31 29 28 29 30 26 23 24 22 20 21 19 21 17 14 19 19 18 20 18 19 21 22 23
29 29 30 30 31 32 33 34 35 34 35 36 36 35 35 34 33 32 32 31 29 30 29 27 25 24 25 21 21 20 21 20 17 18 16 15 17 14 16 16 19 20 21
29 29 31 32 33 33 35 36 35 33 35 36 36 36 36 34 32 33 30 30 29 29 32 28 27 27 29 21 20 19 20 19 19 14 13 16 16 20 17 18 17 19 19
29 31 33 33 35 35 35 37 34 36 35 35 37 36 35 35 33 31 32 30 30 33 29 29 27 28 25 20 18 17 18 19 17 15 12 16 16 15 18 17 16 19 21
31 32 33 34 33 36 36 33 38 38 37 35 36 34 32 33 36 37 35 29 28 31 28 26 31 27 22 22 25 25 25 23 16 17 15 15 20 20 21 21 19 15 8
30 33 35 34 36 34 39 37 39 37 38 36 36 31 34 34 35 36 35 33 32 30 31 37 35 23 25 23 21 24 26 29 30 23 18 21 21 21 23 23 23 21 18
33 35 35 33 36 37 38 38 38 35 36 35 30 31 32 32 32 32 31 32 31 32 31 31 20 22 23 16 16 20 20 19 22 30 29 27 26 24 24 23 26 25 21
31 34 34 35 37 37 38 39 36 35 29 29 25 28 28 28 28 27 27 27 28 27 29 30 27 23 26 19 19 21 20 21 24 26 26 32 29 25 23 17 20 18 12
32 35 37 36 38 38 39 38 36 31 28 28 28 27 29 29 27 27 26 24 25 24 24 26 33 27 22 21 23 23 21 21 22 26 28 26 31 28 25 25 19 19 15
35 37 36 39 38 38 38 36 34 30 28 27 25 25 25 25 23 24 24 25 21 21 22 24 26 21 22 27 30 28 26 24 26 29 26 19 23 28 29 26 24 25 21
36 37 38 39 37 37 37 36 31 28 26 25 23 24 21 22 22 23 26 28 26 24 22 20 20 21 23 23 25 28 28 30 27 24 19 20 19 22 24 25 30 27 22
36 37 38 38 36 36 33 32 30 25 23 21 19 19 20 20 21 24 27 28 29 29 26 25 27 27 25 26 29 28 27 27 27 22 19 20 22 23 24 24 26 22 15
35 37 36 34 37 36 33 30 28 24 20 20 19 19 20 20 21 22 22 23 23 26 26 26 28 28 29 27 25 27 27 25 23 18 18 21 21 22 23 21 20 20 18
35 34 34 32 32 33 32 31 28 27 24 22 22 22 20 21 26 28 27 23 21 20 20 20 19 18 19 22 24 25 25 22 24 21 23 19 21 18 20 22 21 19 14
32 33 32 31 32 30 29 30 28 21 23 25 26 25 28 33 44 43 35 32 29 28 21 19 16 19 25 23 19 19 19 22 23 22 19 19 19 17 17 17 18 17 18
33 32 32 30 29 28 27 25 19 28 25 26 10 13 13 26 34 36 11 28 35 31 18 6 5 11 13 15 16 16 17 18 21 19 14 14 18 20 18 15 16 18 18
33 33 29 29 27 26 25 22 18 16 15 20 23 24 26 29 31 33 34 36 33 29 21 19 18 17 18 20 20 17 16 16 14 11 12 11 10 11 13 18 20 19 15
30 30 31 27 25 26 24 16 15 15 16 18 21 25 23 30 33 33 31 29 25 23 23 22 21 21 20 20 18 16 14 11 6 4 5 9 13 16 17 17 20 19 19
30 31 32 26 25 24 21 18 16 17 19 20 22 22 22 24 27 27 28 28 27 25 25 25 25 23 21 19 16 14 11 6 4 6 9 13 15 16 15 16 19 19 17
28 29 30 25 24 22 19 18 16 17 18 19 21 24 23 22 22 23 25 26 26 26 26 25 24 23 21 18 16 16 13 9 5 3 3 8 12 15 15 19 20 21 20
26 27 26 23 22 22 19 18 17 17 18 17 18 23 26 25 22 22 24 25 26 25 24 23 22 20 20 18 16 15 14 13 11 7 6 9 15 19 13 19 21 22 21
25 26 25 23 22 22 20 19 19 18 19 18 18 19 20 20 21 22 23 24 24 24 24 22 20 19 20 20 17 17 17 15 12 7 9 15 20 16 20 21 21 21 20
23 24 23 22 22 21 20 19 19 20 19 19 19 20 19 20 21 22 22 23 23 24 23 23 26 26 25 22 22 23 20 15 12 12 13 20 25 22 20 20 20 21 21
19 22 23 21 20 19 19 19 18 18 18 18 19 20 20 20 20 21 21 23 23 23 24 24 23 24 28 28 26 25 22 20 16 15 17 20 24 25 22 22 22 20 19
18 18 20 21 20 19 18 17 17 17 18 17 19 20 21 19 18 18 18 20 21 23 23 23 24 24 24 26 26 23 26 25 25 20 20 22 25 26 24 22 21 22 20
Wind_Direction
308 307 306 304 303 301 300 298 298 296 293 288 286 283 277 271 271 273 264 256 253 256 257 252 250 249 250 254 261 250 225 234 254 261 249 263 264 205 217 217 215 221 221
308 307 306 304 303 302 301 299 299 297 295 293 291 288 281 275 275 270 266 257 258 257 252 253 250 249 254 244 246 261 255 225 230 254 257 255 257 260 207 211 210 216 209
308 306 303 304 304 302 300 298 298 297 296 295 292 289 286 281 277 271 270 266 258 263 259 256 254 247 247 239 238 242 250 248 224 242 256 257 259 244 215 220 215 218 212
305 304 304 304 304 307 308 306 303 297 292 288 286 285 283 281 278 273 263 271 268 260 255 256 255 251 245 242 251 252 254 253 231 228 239 257 254 249 225 215 202 212 210
306 307 306 307 308 306 305 299 293 297 293 287 283 281 281 279 275 264 263 253 258 263 268 253 242 248 255 247 254 257 256 256 238 213 222 247 248 236 225 212 207 206 211
313 308 311 307 303 301 298 298 301 294 290 283 284 279 279 275 273 270 264 256 263 252 257 265 254 237 243 249 254 254 257 268 273 207 213 238 243 234 223 203 213 201 202
311 313 307 302 301 302 302 298 298 289 292 278 278 278 277 271 271 266 259 254 253 252 243 257 249 247 239 236 246 249 246 244 248 252 225 228 246 236 221 197 212 211 216
312 309 307 302 303 304 301 300 296 296 291 287 282 274 274 271 270 265 260 257 256 256 254 251 253 253 262 249 252 254 250 248 254 245 244 230 232 244 235 216 210 210 223
306 305 306 306 307 306 304 300 296 295 291 284 274 279 275 275 272 265 259 257 257 253 248 249 256 248 252 258 263 263 260 252 262 264 261 240 236 235 235 230 212 193 205
307 312 310 310 307 303 302 300 297 294 289 285 279 282 277 273 270 267 262 260 253 252 249 237 245 246 251 255 257 255 247 248 250 256 262 242 230 229 230 222 215 205 203
311 310 312 309 305 303 302 301 295 292 287 285 281 279 276 273 272 262 255 250 249 249 244 240 243 243 244 246 243 243 244 247 244 244 249 239 230 215 222 220 214 210 206
320 313 311 308 307 306 302 298 295 291 286 284 279 279 273 272 267 264 261 257 252 243 247 255 258 255 251 242 237 244 245 242 246 241 237 229 216 200 206 212 213 212 216
317 314 311 311 311 306 305 304 300 290 278 276 284 279 271 266 261 264 259 252 249 247 248 252 255 254 247 240 240 243 244 243 232 236 220 212 208 206 202 205 205 208 200
314 313 314 313 311 311 309 304 297 290 278 274 270 271 271 263 254 251 252 255 256 248 246 244 243 242 245 248 247 245 242 235 223 223 224 200 196 191 193 188 185 197 203
316 314 317 315 314 314 312 307 303 297 283 274 270 273 277 275 264 257 252 239 239 238 241 245 242 243 251 246 246 241 231 225 232 215 196 176 180 191 190 194 192 189 198
319 320 320 320 319 317 316 315 316 313 308 292 285 285 287 280 273 259 248 245 238 236 235 235 240 253 240 223 229 235 225 213 191 175 166 169 175 190 196 197 175 189 207
324 323 325 323 322 320 321 322 331 341 9 33 331 305 5 38 47 56 59 238 238 230 233 246 158 112 123 138 136 138 124 128 135 139 154 173 191 204 187 164 185 201 206
328 327 328 325 325 321 322 322 344 9 16 30 39 47 43 51 58 62 66 71 72 81 92 93 85 87 89 90 93 101 113 122 139 162 177 183 180 173 183 194 194 194 189
334 330 333 332 332 333 337 2 17 23 26 33 37 36 38 52 56 58 60 66 71 74 76 76 76 76 76 76 76 73 75 75 92 124 171 188 196 199 198 194 187 186 145
336 336 340 341 344 347 359 10 20 32 38 42 42 37 38 47 49 52 58 60 61 62 61 61 59 60 62 62 62 63 71 77 122 177 196 201 205 198 195 187 156 145 144
338 338 341 348 354 354 4 14 35 40 42 48 47 46 49 56 60 56 58 60 62 61 57 56 56 55 53 53 53 53 56 58 72 106 175 194 194 194 187 160 146 134 129
345 343 345 352 357 1 16 27 35 38 41 43 44 43 48 47 52 54 62 66 68 64 58 60 54 48 49 47 47 43 40 40 43 63 116 163 176 175 147 135 127 128 133
351 350 352 357 5 11 19 28 31 35 36 38 45 45 45 43 47 59 65 64 63 59 59 54 53 52 48 47 49 46 40 30 33 70 106 137 152 146 136 134 132 132 139
356 356 357 3 10 14 17 21 27 39 40 42 47 44 42 46 54 59 65 66 63 64 60 57 55 54 51 47 45 50 41 36 58 78 110 128 136 138 127 126 125 128 138
1 4 360 3 10 14 16 23 30 37 40 46 48 44 47 53 56 64 64 62 65 62 60 56 52 49 47 47 46 50 49 45 62 85 104 123 134 139 123 121 117 123 129
358 3 7 9 13 17 19 21 29 40 44 50 49 48 48 55 60 66 67 64 63 64 64 59 54 47 40 42 47 50 51 52 60 76 98 112 120 127 132 121 122 125 120